30. September 2022

Uhrzeit Code Wetter Temp. Sichtweite Wolkendecke Wind METAR/SPECI
22:00
V
8 °C 9 mi - 260° 260° 2 kt METAR CYBW 010400Z AUTO 26002KT 9SM FEW091 08/07 A3026 RMK SLP266
21:00
V
9 °C 9 mi 9.100 ft 360° 360° 4 kt METAR CYBW 010300Z AUTO 36004KT 9SM BKN091 09/08 A3026 RMK SLP267
20:00
V
11 °C 9 mi - 010° 010° 6 kt METAR CYBW 010200Z AUTO 01006KT 9SM CLR 11/08 A3024 RMK SLP257 DENSITY ALT 4100FT
19:00
V
13 °C 9 mi - 040° 040° 6 kt METAR CYBW 010100Z AUTO 04006KT 9SM CLR 13/09 A3022 RMK SLP247 DENSITY ALT 4300FT
18:00
V
15 °C 9 mi - 010° 010° 7 kt METAR CYBW 010000Z AUTO 01007KT 9SM CLR 15/09 A3020 RMK SLP237 DENSITY ALT 4600FT
17:00
V
16 °C 9 mi 11.000 ft 010° 010° 11 - 17 kt METAR CYBW 302300Z AUTO 01011G17KT 9SM OVC110 16/09 A3020 RMK SLP237 DENSITY ALT 4600FT
16:00
V
16 °C 9 mi 10.000 ft 020° 020° 14 kt METAR CYBW 302200Z AUTO 02014KT 9SM BKN100 16/09 A3020 RMK SLP234 DENSITY ALT 4700FT
15:00
V
17 °C 9 mi - 350° 350° 12 - 18 kt METAR CYBW 302100Z AUTO 35012G18KT 9SM FEW033 17/09 A3019 RMK SLP229 DENSITY ALT 4800FT
14:00
V
17 °C 9 mi - 360° 360° 10 - 15 kt METAR CYBW 302000Z AUTO 36010G15KT 9SM FEW030 SCT120 17/09 A3020 RMK SLP233 DENSITY ALT 4800FT
13:00
V
15 °C 9 mi 11.000 ft 340° 340° 12 kt METAR CYBW 301900Z AUTO 34012KT 9SM OVC110 15/09 A3020 RMK SLP238 DENSITY ALT 4500FT
12:00
V
14 °C 9 mi 11.000 ft 340° 340° 16 - 22 kt METAR CYBW 301800Z AUTO 34016G22KT 9SM OVC110 14/08 A3019 RMK SLP234 DENSITY ALT 4500FT
11:00
V
15 °C 9 mi 9.600 ft 340° 340° 18 - 25 kt METAR CYBW 301700Z AUTO 34018G25KT 9SM BKN096 15/08 A3018 RMK SLP230 DENSITY ALT 4600FT
10:00
V
14 °C 9 mi 11.000 ft 340° 340° 13 - 18 kt METAR CYBW 301600Z AUTO 34013G18KT 9SM SCT091 BKN110 14/08 A3019 RMK SLP234 DENSITY ALT 4400FT
09:00
V
11 °C 9 mi 15.000 ft 320° 320° 7 kt METAR CYBW 301500Z AUTO 32007KT 9SM OVC150 11/08 A3018 RMK SLP234 DENSITY ALT 4200FT
08:00
V
10 °C 9 mi 13.000 ft 320° 320° 5 kt METAR CYBW 301400Z AUTO 32005KT 9SM OVC130 10/07 A3017 RMK SLP234 DENSITY ALT 4000FT
07:00
V
11 °C 9 mi 13.000 ft 330° 330° 11 - 16 kt METAR CYBW 301300Z AUTO 33011G16KT 9SM SCT096 OVC130 11/07 A3016 RMK SLP226 DENSITY ALT 4100FT
06:00
V
11 °C 9 mi 9.600 ft 330° 330° 14 kt METAR CYBW 301200Z AUTO 33014KT 9SM BKN096 OVC120 11/07 A3015 RMK PCPN 0.5MM PAST HR SLP220 DENSITY ALT 4200FT
05:54
V
11 °C 9 mi 10.000 ft 330° 330° 12 - 17 kt METAR CYBW 301154Z AUTO 33012G17KT 9SM BKN100 OVC120 11/07 A3014 RMK SLP223 DENSITY ALT 4200FT
05:34
V
11 °C 9 mi 10.000 ft 330° 330° 12 - 17 kt METAR CYBW 301134Z AUTO 33012G17KT 9SM -RA BKN100 OVC120 11/07 A3014 RMK SLP222 DENSITY ALT 4200FT
05:00
V
11 °C 9 mi 12.000 ft 330° 330° 13 - 20 kt METAR CYBW 301100Z AUTO 33013G20KT 9SM SCT100 OVC120 11/07 A3014 RMK SLP214 DENSITY ALT 4200FT
04:00
V
11 °C 9 mi 12.000 ft 330° 330° 11 - 16 kt METAR CYBW 301000Z AUTO 33011G16KT 9SM OVC120 11/07 A3014 RMK SLP215 DENSITY ALT 4200FT
03:00
V
11 °C 9 mi 12.000 ft 330° 330° 9 kt METAR CYBW 300900Z AUTO 33009KT 9SM OVC120 11/07 A3014 RMK SLP215 DENSITY ALT 4200FT
02:00
V
11 °C 9 mi 12.000 ft 320° 320° 11 kt METAR CYBW 300800Z AUTO 32011KT 9SM OVC120 11/07 A3013 RMK SLP214 DENSITY ALT 4200FT
01:00
V
12 °C 9 mi 11.000 ft 320° 320° 13 kt METAR CYBW 300700Z AUTO 32013KT 9SM OVC110 12/08 A3013 RMK SLP216 DENSITY ALT 4300FT
00:00
V
12 °C 9 mi 13.000 ft 320° 320° 13 kt METAR CYBW 300600Z AUTO 32013KT 9SM SCT110 OVC130 12/08 A3011 RMK SLP208 DENSITY ALT 4300FT

29. September 2022

Uhrzeit Code Wetter Temp. Sichtweite Wolkendecke Wind METAR/SPECI
23:00
V
11 °C 9 mi 14.000 ft 320° 320° 12 kt METAR CYBW 300500Z AUTO 32012KT 9SM BKN140 11/08 A3011 RMK SLP210 DENSITY ALT 4200FT
22:00
V
11 °C 9 mi - 310° 310° 11 - 17 kt METAR CYBW 300400Z AUTO 31011G17KT 9SM CLR 11/08 A3011 RMK SLP206 DENSITY ALT 4200FT
21:00
V
12 °C 9 mi 8.600 ft 310° 310° 10 kt METAR CYBW 300300Z AUTO 31010KT 9SM OVC086 12/08 A3010 RMK SLP202 DENSITY ALT 4300FT
20:00
V
11 °C 9 mi - 320° 320° 11 kt METAR CYBW 300200Z AUTO 32011KT 9SM SCT086 11/08 A3009 RMK SLP202 DENSITY ALT 4300FT
19:00
V
13 °C 9 mi - 330° 330° 13 - 20 kt METAR CYBW 300100Z AUTO 33013G20KT 9SM FEW086 13/08 A3006 RMK SLP186 DENSITY ALT 4500FT
18:00
V
14 °C 9 mi 22.000 ft 340° 340° 11 kt METAR CYBW 300000Z AUTO 34011KT 9SM FEW096 BKN220 14/08 A3004 RMK SLP180 DENSITY ALT 4600FT
17:00
V
15 °C 9 mi 8.600 ft 350° 350° 9 kt METAR CYBW 292300Z AUTO 35009KT 9SM BKN086 OVC100 15/10 A3003 RMK SLP183 DENSITY ALT 4800FT
16:00
V
15 °C 9 mi 8.100 ft 320° 320° 8 kt METAR CYBW 292200Z AUTO 32008KT 9SM OVC081 15/10 A3001 RMK SLP176 DENSITY ALT 4800FT
15:00
V
15 °C 9 mi 8.600 ft 310° 310° 15 - 21 kt METAR CYBW 292100Z AUTO 31015G21KT 9SM BKN086 OVC110 15/10 A3000 RMK SLP168 DENSITY ALT 4800FT
14:00
V
13 °C 9 mi 10.000 ft 310° 310° 15 - 20 kt METAR CYBW 292000Z AUTO 31015G20KT 9SM BKN100 BKN140 BKN210 13/10 A3001 RMK SLP177 DENSITY ALT 4600FT
13:00
V
11 °C 9 mi 8.800 ft 310° 310° 14 kt METAR CYBW 291900Z AUTO 31014KT 9SM SCT076 OVC088 11/10 A3002 RMK SLP177 DENSITY ALT 4400FT
12:57
V
11 °C 9 mi 8.900 ft 310° 310° 14 kt METAR CYBW 291857Z AUTO 31014KT 9SM SCT071 OVC089 11/09 A3002 RMK SLP181 DENSITY ALT 4300FT
12:20
V
12 °C 9 mi 6.600 ft 270° 270° 8 kt METAR CYBW 291820Z AUTO 27008KT 9SM -RA OVC066 12/10 A3005 RMK PRESRR SLP188 DENSITY ALT 4400FT
12:18
V
12 °C 9 mi 7.100 ft 260° 260° 8 kt METAR CYBW 291818Z AUTO 26008KT 9SM OVC071 12/10 A3005 RMK PRESRR SLP187 DENSITY ALT 4400FT
12:00
V
12 °C 9 mi 7.100 ft 280° 280° 9 kt METAR CYBW 291800Z AUTO 28009KT 9SM -RA OVC071 12/10 A3003 RMK PCPN 0.8MM PAST HR SLP176 DENSITY ALT 4500FT
11:03
V
12 °C 9 mi 8.600 ft 330° 330° 7 kt METAR CYBW 291703Z AUTO 33007KT 9SM -RA OVC086 12/08 A3000 RMK SLP169 DENSITY ALT 4500FT
11:00
V
13 °C 9 mi 8.600 ft 330° 330° 7 kt METAR CYBW 291700Z AUTO 33007KT 9SM OVC086 13/08 A3000 RMK SLP168 DENSITY ALT 4500FT
10:47
V
12 °C 9 mi 9.100 ft 360° 360° 7 kt METAR CYBW 291647Z AUTO 36007KT 9SM OVC091 12/09 A3000 RMK SLP169 DENSITY ALT 4500FT
10:00
V
14 °C 9 mi 7.600 ft Var Var 4 kt METAR CYBW 291600Z AUTO VRB04KT 9SM -RA BKN076 OVC088 14/07 A2999 RMK SLP165 DENSITY ALT 4600FT
09:56
V
14 °C 9 mi 8.100 ft Var Var 11 kt METAR CYBW 291556Z AUTO VRB11KT 9SM -RA OVC081 14/07 A2999 RMK PRESRR SLP162 DENSITY ALT 4700FT
09:00
V
14 °C 9 mi 13.000 ft 320° 320° 7 kt METAR CYBW 291500Z AUTO 32007KT 9SM SCT100 OVC130 14/06 A2994 RMK SLP143 DENSITY ALT 4800FT
08:00
V
12 °C 9 mi 11.000 ft 320° 320° 8 kt METAR CYBW 291400Z AUTO 32008KT 9SM BKN110 OVC130 12/07 A2993 RMK SLP138 DENSITY ALT 4500FT
07:05
V
14 °C 9 mi 9.600 ft 270° 270° 5 kt METAR CYBW 291305Z AUTO 27005KT 9SM OVC096 14/07 A2995 RMK SLP145 DENSITY ALT 4800FT
06:27
V
12 °C 9 mi 8.600 ft 270° 270° 5 kt METAR CYBW 291227Z AUTO 27005KT 160V320 9SM -RA BKN086 OVC120 12/05 A2996 RMK SLP155 DENSITY ALT 4500FT
06:23
V
15 °C 9 mi 9.800 ft 200° 200° 5 kt METAR CYBW 291223Z AUTO 20005KT 140V210 9SM SCT081 OVC098 15/06 A2995 RMK SLP143 DENSITY ALT 4900FT
06:07
V
14 °C 9 mi 9.100 ft 190° 190° 5 kt METAR CYBW 291207Z AUTO 19005KT 9SM -RA BKN091 OVC110 14/05 A2994 RMK SLP146 DENSITY ALT 4700FT
05:00
V
7 °C 9 mi 14.000 ft 310° 310° 4 kt METAR CYBW 291100Z AUTO 31004KT 220V330 9SM BKN140 OVC170 07/04 A2996 RMK SLP142
04:00
V
7 °C 9 mi 19.000 ft 210° 210° 4 kt METAR CYBW 291000Z AUTO 21004KT 200V280 9SM BKN190 07/03 A2996 RMK SLP146
03:00
V
10 °C 9 mi - 300° 300° 9 kt METAR CYBW 290900Z AUTO 30009KT 9SM CLR 10/04 A2995 RMK SLP132 DENSITY ALT 4300FT
02:00
V
9 °C 9 mi 22.000 ft 320° 320° 6 kt METAR CYBW 290800Z AUTO 32006KT 9SM FEW180 BKN220 BKN240 09/04 A2995 RMK SLP134 DENSITY ALT 4200FT
01:00
V
12 °C 9 mi 22.000 ft 250° 250° 5 kt METAR CYBW 290700Z AUTO 25005KT 9SM OVC220 12/04 A2995 RMK SLP133 DENSITY ALT 4500FT
00:00
V
15 °C 9 mi 10.000 ft 020° 020° 13 kt METAR CYBW 290600Z AUTO 02013KT 9SM BKN100 OVC120 15/04 A2993 RMK PRESFR SLP128 DENSITY ALT 4900FT

28. September 2022

Uhrzeit Code Wetter Temp. Sichtweite Wolkendecke Wind METAR/SPECI
23:00
V
13 °C 9 mi 13.000 ft 340° 340° 6 kt METAR CYBW 290500Z AUTO 34006KT 9SM BKN130 BKN150 OVC180 13/05 A2995 RMK SLP145 DENSITY ALT 4600FT
22:00
V
12 °C 9 mi 17.000 ft 320° 320° 4 kt METAR CYBW 290400Z AUTO 32004KT 280V340 9SM SCT140 OVC170 12/05 A2996 RMK SLP153 DENSITY ALT 4600FT
21:00
V
13 °C 9 mi - Var Var 2 kt METAR CYBW 290300Z AUTO VRB02KT 9SM CLR 13/02 A2995 RMK SLP158 DENSITY ALT 4700FT
20:00
V
17 °C 9 mi - 100° 100° 8 kt METAR CYBW 290200Z AUTO 10008KT 9SM CLR 17/02 A2994 RMK SLP153 DENSITY ALT 5200FT
19:00
V
19 °C 9 mi - 100° 100° 9 kt METAR CYBW 290100Z AUTO 10009KT 9SM CLR 19/03 A2993 RMK SLP149 DENSITY ALT 5300FT
18:00
V
25 °C 9 mi - 100° 100° 5 kt METAR CYBW 290000Z AUTO 10005KT 9SM CLR 25/04 A2993 RMK SLP138 DENSITY ALT 6000FT
Ältere Daten

Wir und Dritte verfolgen dein Internetverhalten auf unserer Website mit Cookies. Wenn du fortfährst, gehen wir davon aus, dass du mit unserer Cookie-Richtlinie einverstanden bist. Mehr erfahren